This is the latest recevied weather packets stored in our database for station/object KI6AOK. If no packets are shown the sender has not sent any weather packets the latest 10 day(s).
| Time | Temp. | Humidity | Pressure | Rain* | Wind** | Luminosity | Snow |
|---|---|---|---|---|---|---|---|
| 1777594034 | 20° C | 61% | 1011.5 hPa | 0 mm | - | 275 W/m² | - |
| 1777593730 | 20° C | 60% | 1011.6 hPa | 0 mm | - | 292 W/m² | - |
| 1777593426 | 20.56° C | 59% | 1011.6 hPa | 0 mm | - | 308 W/m² | - |
| 1777593125 | 20.56° C | 59% | 1011.6 hPa | 0 mm | - | 325 W/m² | - |
| 1777592824 | 20.56° C | 59% | 1011.6 hPa | 0 mm | - | 342 W/m² | - |
| 1777592521 | 20.56° C | 56% | 1011.6 hPa | 0 mm | - | 362 W/m² | - |
| 1777592216 | 20.56° C | 58% | 1011.6 hPa | 0 mm | - | 380 W/m² | - |
| 1777591913 | 20.56° C | 59% | 1011.5 hPa | 0 mm | - | 399 W/m² | - |
| 1777591609 | 20.56° C | 58% | 1011.5 hPa | 0 mm | - | 415 W/m² | - |
| 1777591305 | 21.11° C | 58% | 1011.5 hPa | 0 mm | - | 434 W/m² | - |
| 1777591002 | 21.11° C | 57% | 1011.6 hPa | 0 mm | - | 454 W/m² | - |
| 1777590702 | 21.11° C | 58% | 1011.6 hPa | 0 mm | - | 468 W/m² | - |
| 1777590399 | 21.11° C | 57% | 1011.5 hPa | 0 mm | - | 500 W/m² | - |
| 1777590096 | 21.67° C | 57% | 1011.6 hPa | 0 mm | - | 499 W/m² | - |
| 1777589793 | 21.11° C | 58% | 1011.7 hPa | 0 mm | - | 514 W/m² | - |
| 1777589492 | 21.11° C | 56% | 1011.6 hPa | 0 mm | - | 526 W/m² | - |
| 1777589192 | 21.67° C | 55% | 1011.6 hPa | 0 mm | - | 539 W/m² | - |
| 1777588888 | 21.11° C | 56% | 1011.6 hPa | 0 mm | - | 556 W/m² | - |
| 1777588585 | 21.67° C | 56% | 1011.5 hPa | 0 mm | - | 567 W/m² | - |
| 1777588280 | 21.67° C | 55% | 1011.5 hPa | 0 mm | - | 583 W/m² | - |
| 1777587976 | 21.67° C | 54% | 1011.6 hPa | 0 mm | - | 599 W/m² | - |
| 1777587672 | 21.11° C | 56% | 1011.9 hPa | 0 mm | - | 611 W/m² | - |
| 1777587371 | 21.11° C | 56% | 1011.7 hPa | 0 mm | - | 626 W/m² | - |
| 1777587068 | 21.67° C | 57% | 1011.8 hPa | 0 mm | - | 639 W/m² | - |
| 1777586764 | 21.67° C | 56% | 1011.8 hPa | 0 mm | - | 652 W/m² | - |
* Rain latest hour (hover to see other rain measurements)
** Current wind speed in m/s (hover to see current wind gust speed)